Dewpoint
5 3 1 0 0 0 -1 -6 -19 -26 -30 -30 -30 -29 -24 -22 -21 -22 -20 -10 -16 -13 -10 -9 -9 -8 -9 -10 -10 -10 -10 -10 -10 -9 -9 -10 -13 -19 -18 -14 -13 -12 -10
4 2 0 0 -0 -1 -5 -14 -23 -27 -26 -29 -31 -29 -25 -23 -23 -22 -19 -20 -17 -13 -10 -8 -8 -8 -9 -10 -9 -10 -11 -12 -10 -10 -10 -10 -14 -19 -13 -11 -10 -10 -8
4 1 -1 -1 -2 -4 -10 -16 -25 -26 -26 -29 -28 -28 -27 -27 -25 -20 -16 -21 -22 -20 -11 -10 -9 -9 -9 -10 -10 -13 -13 -13 -11 -10 -10 -13 -16 -15 -11 -11 -10 -10 -10
3 1 -1 -2 -3 -8 -10 -16 -22 -23 -27 -30 -28 -30 -30 -26 -21 -14 -20 -27 -27 -25 -20 -14 -9 -10 -10 -10 -12 -13 -13 -13 -12 -10 -12 -14 -12 -12 -11 -9 -9 -11 -10
2 0 -1 -3 -6 -7 -9 -15 -20 -24 -27 -28 -28 -27 -25 -22 -14 -16 -20 -26 -27 -28 -23 -10 -10 -10 -10 -11 -11 -11 -11 -12 -12 -12 -13 -12 -11 -11 -9 -10 -10 -10 -11
1 -0 -2 -5 -6 -7 -9 -15 -20 -23 -25 -23 -20 -20 -18 -18 -14 -16 -19 -27 -29 -29 -17 -10 -10 -11 -11 -12 -10 -10 -10 -11 -13 -13 -12 -12 -11 -9 -10 -11 -10 -9 -8
0 -1 -4 -5 -6 -7 -9 -13 -18 -20 -20 -16 -16 -14 -12 -13 -14 -17 -21 -26 -30 -26 -12 -11 -11 -11 -11 -10 -10 -11 -13 -14 -15 -12 -12 -11 -10 -11 -12 -11 -10 -9 -11
-0 -3 -5 -5 -6 -7 -8 -11 -15 -18 -17 -17 -14 -12 -12 -14 -13 -13 -17 -25 -30 -21 -12 -12 -11 -12 -11 -11 -11 -12 -16 -21 -18 -16 -13 -12 -11 -12 -11 -9 -9 -9 -12
-1 -3 -5 -6 -6 -6 -8 -10 -14 -16 -14 -15 -15 -12 -13 -13 -15 -14 -17 -21 -28 -26 -17 -13 -15 -14 -12 -12 -13 -16 -24 -28 -20 -17 -16 -16 -20 -14 -11 -9 -9 -9 -11
-1 -3 -4 -5 -6 -6 -8 -10 -13 -14 -16 -15 -16 -17 -17 -15 -18 -16 -15 -17 -25 -28 -27 -27 -20 -12 -12 -15 -17 -23 -17 -18 -15 -16 -17 -18 -16 -12 -12 -10 -10 -10 -11
-2 -2 -3 -4 -5 -6 -8 -10 -12 -14 -18 -20 -18 -16 -16 -13 -11 -14 -14 -15 -19 -24 -28 -27 -26 -22 -21 -25 -27 -19 -13 -13 -13 -13 -13 -13 -13 -13 -13 -12 -11 -11 -11
-2 -2 -3 -4 -5 -6 -8 -10 -13 -18 -19 -18 -17 -15 -13 -14 -12 -11 -12 -13 -15 -21 -28 -27 -25 -26 -27 -28 -19 -14 -13 -13 -13 -13 -13 -13 -13 -13 -13 -14 -14 -12 -11
-2 -3 -3 -4 -5 -6 -8 -10 -13 -18 -17 -17 -15 -15 -14 -13 -11 -10 -11 -11 -14 -24 -29 -28 -27 -28 -27 -16 -14 -13 -12 -13 -14 -15 -14 -13 -13 -13 -14 -14 -14 -14 -12
-2 -3 -4 -5 -5 -6 -8 -11 -15 -15 -16 -16 -15 -15 -14 -13 -11 -10 -10 -12 -17 -28 -29 -29 -28 -27 -17 -13 -14 -14 -14 -14 -14 -13 -15 -15 -15 -15 -14 -14 -14 -14 -13
-2 -3 -4 -5 -6 -7 -7 -9 -15 -15 -17 -20 -20 -16 -17 -18 -17 -24 -21 -23 -30 -29 -29 -28 -27 -19 -14 -13 -14 -15 -15 -15 -15 -13 -14 -16 -16 -15 -16 -15 -15 -14 -14
-2 -3 -4 -6 -7 -8 -8 -11 -12 -13 -14 -19 -24 -22 -26 -32 -32 -31 -31 -30 -29 -29 -28 -26 -19 -14 -13 -14 -14 -14 -15 -15 -15 -15 -15 -15 -16 -16 -15 -16 -15 -14 -14
-3 -4 -5 -6 -7 -8 -9 -8 -10 -12 -12 -17 -26 -28 -31 -32 -32 -31 -30 -30 -29 -28 -25 -15 -14 -13 -14 -14 -14 -15 -14 -14 -16 -16 -16 -16 -16 -16 -16 -15 -16 -15 -15
-2 -4 -5 -6 -7 -9 -9 -4 -8 -10 -8 -19 -24 -23 -26 -29 -29 -30 -29 -28 -28 -23 -13 -12 -13 -13 -13 -14 -14 -15 -15 -16 -16 -16 -16 -16 -16 -16 -17 -15 -15 -15 -16
-3 -4 -6 -7 -8 -9 -7 -4 -7 -6 -10 -20 -19 -18 -19 -21 -23 -23 -25 -25 -22 -18 -13 -13 -13 -14 -14 -14 -15 -15 -16 -16 -16 -15 -16 -16 -17 -17 -17 -16 -16 -16 -16
-3 -4 -5 -7 -8 -9 -6 -5 -7 -5 -12 -19 -17 -16 -14 -17 -17 -16 -18 -19 -16 -13 -13 -13 -14 -14 -14 -15 -15 -15 -15 -16 -16 -17 -17 -17 -17 -17 -18 -18 -17 -16 -16
-3 -4 -6 -7 -9 -9 -3 -6 -6 -6 -12 -16 -16 -13 -11 -12 -11 -13 -19 -22 -14 -12 -13 -13 -14 -14 -14 -15 -16 -16 -16 -17 -17 -17 -17 -17 -17 -18 -23 -22 -20 -17 -17
-4 -4 -5 -7 -7 -4 -5 -7 -5 -6 -14 -14 -13 -12 -13 -12 -13 -16 -19 -14 -12 -12 -13 -13 -14 -14 -15 -15 -15 -16 -16 -16 -17 -17 -17 -17 -20 -25 -28 -28 -23 -19 -17
-4 -5 -5 -7 -6 -5 -7 -5 -5 -12 -14 -13 -12 -12 -12 -13 -13 -12 -12 -12 -12 -12 -13 -13 -13 -14 -15 -15 -16 -16 -16 -17 -17 -17 -18 -20 -25 -28 -30 -30 -26 -21 -18
-5 -5 -6 -5 -4 -7 -7 -5 -9 -14 -13 -13 -12 -11 -11 -11 -11 -12 -12 -12 -13 -13 -13 -13 -14 -14 -14 -15 -16 -16 -16 -17 -18 -17 -20 -23 -26 -29 -31 -31 -28 -22 -18
-5 -6 -6 -6 -10 -6 -5 -8 -16 -18 -15 -15 -15 -14 -13 -11 -11 -12 -12 -12 -13 -13 -13 -14 -14 -14 -15 -15 -16 -16 -17 -17 -17 -18 -20 -25 -28 -30 -31 -31 -26 -20 -19
-7 -7 -8 -8 -6 -5 -7 -15 -18 -16 -18 -15 -11 -11 -11 -11 -11 -12 -12 -13 -13 -13 -13 -14 -14 -14 -15 -15 -16 -17 -17 -17 -18 -21 -25 -27 -29 -30 -32 -30 -25 -20 -19
Wind_Speed
21 16 15 13 12 10 12 12 11 10 9 9 9 9 10 11 11 11 10 8 13 12 13 13 15 15 15 19 16 15 18 19 25 28 27 29 33 32 32 29 29 31 32
23 19 16 15 13 12 12 13 12 10 11 10 10 10 10 11 12 12 11 12 13 13 14 15 16 16 18 17 16 20 21 20 22 29 28 33 33 32 31 32 32 31 34
25 22 18 16 13 13 12 12 12 11 11 11 12 12 12 13 12 11 11 13 14 15 14 16 17 17 17 17 20 26 23 21 23 26 32 35 33 30 33 33 33 35 35
26 21 20 16 14 13 13 13 13 12 11 12 13 13 13 13 12 10 12 16 17 16 16 16 15 17 18 23 28 24 27 26 25 27 34 36 31 29 32 35 41 38 39
25 22 20 16 14 13 14 13 13 14 13 14 14 13 13 13 11 13 16 17 18 18 16 11 14 18 22 22 24 27 24 28 30 36 36 32 32 33 34 38 43 42 42
24 22 18 17 15 15 15 14 15 14 14 13 13 13 13 11 16 17 16 18 19 19 13 14 16 17 17 21 22 24 27 30 35 30 32 31 32 29 36 38 38 41 44
23 21 20 19 17 17 16 15 15 14 14 14 15 13 13 14 18 19 16 18 19 17 12 16 19 17 20 23 27 31 33 33 33 27 29 29 32 35 36 33 33 38 44
25 23 21 21 19 18 17 16 16 15 15 15 14 14 16 16 18 20 20 19 18 13 14 16 20 22 21 26 30 33 34 34 31 30 28 27 32 34 27 29 34 37 42
27 26 24 23 21 20 19 18 17 16 16 17 15 15 17 16 18 21 21 17 18 16 15 18 21 21 20 27 32 35 38 34 29 28 29 30 29 25 22 28 30 33 40
28 27 25 25 23 22 20 19 17 18 18 18 18 19 17 17 20 19 19 19 19 19 19 20 18 18 24 28 33 37 34 31 30 32 29 28 22 23 25 24 28 31 35
27 26 26 26 25 23 22 21 20 21 20 19 17 17 17 15 19 20 22 21 21 20 20 20 20 21 25 29 32 29 26 29 32 28 29 30 30 28 27 29 29 28 32
28 27 27 27 27 24 24 23 22 21 20 20 19 17 17 17 18 19 22 22 22 20 21 22 24 25 28 29 26 23 28 28 28 28 28 30 32 31 31 35 32 28 28
29 30 29 28 28 26 25 24 23 21 19 19 19 19 19 14 14 18 20 22 23 22 24 25 26 28 28 22 23 24 27 30 30 31 29 29 30 32 34 31 31 29 28
32 32 31 30 29 28 28 25 23 23 21 21 22 21 18 16 17 17 19 23 22 24 24 25 26 26 21 20 24 25 26 27 31 31 31 33 34 29 30 29 33 31 31
32 32 33 33 31 30 29 25 24 24 23 20 21 21 20 19 20 21 21 22 23 23 25 26 26 21 20 23 26 26 26 27 28 28 33 36 31 32 32 29 29 29 30
34 36 37 34 32 31 27 24 22 23 22 20 20 23 23 22 22 21 21 21 21 21 24 24 21 19 22 26 27 27 27 27 27 30 32 32 33 33 32 32 30 28 29
36 39 38 34 34 34 29 26 28 27 25 24 22 24 23 22 22 20 20 20 20 20 21 19 19 21 25 26 27 26 27 27 30 29 28 30 31 31 31 32 31 28 30
35 42 41 38 39 37 30 27 27 26 23 21 19 19 18 19 18 19 19 20 20 16 13 18 20 23 25 26 26 27 29 30 29 28 29 30 29 30 31 30 31 32 31
37 41 36 37 37 36 32 26 24 24 22 21 19 20 18 16 16 15 17 18 16 14 13 17 20 23 25 26 27 28 28 28 27 28 30 30 30 28 30 30 31 30 29
36 36 39 39 39 35 31 25 25 22 20 21 19 17 18 18 18 15 15 17 16 15 16 19 21 24 25 26 27 27 28 29 30 31 31 30 27 29 32 31 29 29 28
36 37 36 39 39 34 30 23 24 18 20 20 18 17 18 18 18 20 22 19 15 16 18 20 22 22 24 27 28 28 29 30 29 30 29 29 31 33 34 32 29 26 25
33 32 32 35 35 34 24 22 22 17 20 18 18 19 19 19 20 21 17 13 15 19 19 19 21 23 25 25 26 28 28 30 29 27 30 33 34 34 33 32 32 28 26
28 28 28 30 30 27 21 22 17 17 18 18 19 16 19 20 19 17 16 18 19 19 20 20 23 25 26 26 26 27 29 28 28 31 34 34 34 35 36 34 31 28 25
30 30 25 26 26 23 24 20 15 19 18 17 15 16 18 19 19 19 19 20 20 20 21 22 24 26 28 29 29 29 32 33 30 29 30 33 35 35 35 33 31 26 24
27 22 21 21 21 20 20 16 17 16 17 17 18 18 16 16 18 18 19 20 21 22 23 24 26 28 30 30 31 32 32 29 28 30 33 33 34 33 33 32 29 25 24
20 18 18 18 18 18 15 18 18 18 17 17 16 16 16 17 18 18 19 20 22 23 25 27 27 30 32 33 31 27 29 31 32 29 30 32 33 34 33 31 29 26 25
Wind_Direction
218 220 227 238 241 253 266 274 277 283 285 294 303 313 313 317 321 325 328 326 317 324 324 319 319 316 313 312 319 314 301 305 306 308 308 308 311 323 329 329 328 330 328
221 220 227 235 244 255 264 268 273 272 285 292 298 302 302 305 313 316 319 319 321 320 317 318 311 309 312 318 309 299 301 303 305 305 308 305 312 321 327 328 329 327 325
219 223 229 239 240 251 260 265 270 265 274 287 292 296 297 301 306 310 311 311 313 314 312 300 308 311 313 311 297 308 310 306 298 301 301 305 314 320 325 324 323 317 317
218 223 232 233 237 246 256 262 261 266 273 281 286 289 293 296 301 294 299 314 314 311 307 309 316 314 299 300 308 314 319 310 309 302 304 310 315 320 318 316 313 318 318
219 220 229 231 233 242 254 257 258 267 271 276 281 284 288 295 294 290 300 309 313 313 312 321 304 297 305 311 311 316 303 304 305 304 306 310 311 316 314 311 313 317 318
214 219 228 232 232 236 250 254 258 266 274 278 278 282 283 289 280 287 297 305 312 314 315 307 306 308 306 303 302 291 297 301 302 303 301 302 309 307 303 310 315 320 314
213 223 224 232 232 239 248 253 257 262 267 267 274 276 277 281 284 292 303 308 312 312 322 302 299 296 294 293 287 290 297 303 305 300 295 297 294 296 302 309 315 315 314
217 224 224 231 233 236 244 250 255 259 261 267 270 268 268 273 278 286 297 304 310 315 296 297 290 292 293 295 296 300 303 305 306 304 298 292 290 296 301 310 309 307 310
222 223 225 233 234 235 242 249 253 256 259 262 266 266 269 271 280 280 292 301 309 302 295 287 294 303 296 294 302 306 309 311 310 305 302 297 296 298 305 309 307 314 314
227 224 228 235 236 238 242 248 253 251 255 257 257 262 267 266 279 284 292 302 303 302 303 307 307 299 298 305 309 312 312 318 316 315 313 310 309 308 304 302 307 313 313
232 229 231 235 237 238 240 243 246 251 257 262 262 263 268 268 272 281 287 296 302 305 309 311 314 309 307 311 312 313 319 318 313 322 323 321 316 305 301 297 296 304 312
228 235 233 234 237 235 235 241 246 250 254 256 259 262 263 263 264 276 286 295 300 305 312 315 313 313 315 316 316 324 326 325 323 316 313 312 317 319 309 304 296 300 305
224 231 235 234 234 233 236 239 242 250 253 258 259 260 262 266 267 271 282 287 295 310 312 309 313 315 317 316 326 328 320 320 322 322 317 315 312 308 307 314 313 299 302
228 228 233 234 234 233 235 239 241 244 247 252 257 258 259 253 252 259 267 280 294 298 302 307 310 316 322 328 320 315 316 317 319 320 321 315 314 321 321 315 315 315 311
227 232 232 236 236 233 240 240 239 245 251 256 260 260 260 262 262 270 273 279 289 297 301 307 315 321 327 319 315 315 315 316 317 314 316 322 322 322 321 325 321 320 316
231 235 231 234 235 235 238 237 242 243 250 261 264 262 266 269 272 276 279 285 289 297 300 309 316 328 317 312 313 313 313 314 315 313 317 319 321 320 322 324 322 317 317
233 234 235 236 229 234 232 232 242 244 252 259 268 265 264 268 271 276 279 284 292 297 298 312 322 314 309 308 309 311 311 310 312 314 316 316 320 321 320 321 324 322 317
243 242 239 239 231 233 236 237 238 252 263 267 271 268 268 268 268 272 276 284 294 292 298 307 304 304 302 304 306 307 306 310 314 316 316 317 317 318 317 319 319 319 318
250 240 238 234 232 235 235 239 240 252 258 267 268 271 278 282 277 273 275 284 292 295 298 298 299 301 302 302 301 304 308 311 313 311 311 312 314 317 315 313 311 313 316
248 240 239 235 232 234 245 238 242 253 261 265 264 261 270 277 283 290 290 296 296 297 296 297 299 299 299 303 306 306 305 305 305 307 309 312 314 310 309 312 311 310 312
249 249 242 237 234 238 247 232 246 254 262 261 265 264 262 255 259 265 273 274 272 278 283 289 298 304 303 301 301 300 300 302 304 306 310 310 306 308 314 312 311 308 307
256 254 248 240 236 243 237 233 250 256 253 257 258 261 266 269 273 278 276 275 271 276 285 292 298 303 305 305 302 301 300 301 304 306 302 301 306 312 316 316 312 306 305
256 250 241 229 231 230 229 249 251 249 251 254 256 255 266 276 286 289 282 275 275 279 288 294 300 309 313 312 310 306 305 305 302 297 298 303 309 314 316 313 312 309 303
241 244 234 224 229 229 242 248 241 245 252 255 260 260 260 264 270 275 277 279 281 286 291 296 302 309 313 312 311 309 308 307 302 301 306 308 310 312 313 312 311 310 310
237 235 228 227 220 235 242 243 250 247 250 259 262 266 269 271 273 278 282 285 287 290 295 301 305 308 312 311 307 303 303 303 306 307 305 305 307 310 312 311 311 309 305
226 220 219 224 234 243 237 243 246 252 258 260 262 267 269 270 273 277 280 284 288 290 294 301 306 308 308 307 307 307 306 307 305 303 303 308 311 312 311 308 304 299 300
Height
1566 1568 1568 1570 1571 1571 1571 1571 1570 1569 1569 1568 1566 1565 1564 1563 1562 1561 1559 1559 1557 1555 1553 1552 1550 1548 1546 1543 1541 1540 1537 1535 1530 1525 1523 1519 1515 1512 1508 1504 1501 1497 1495
1562 1563 1563 1565 1567 1567 1566 1567 1567 1566 1566 1565 1564 1563 1562 1560 1559 1558 1556 1555 1554 1552 1551 1549 1547 1545 1542 1540 1538 1535 1532 1530 1527 1521 1518 1513 1510 1506 1502 1499 1496 1494 1490
1557 1558 1558 1559 1561 1563 1563 1563 1563 1563 1562 1562 1561 1560 1559 1557 1556 1555 1553 1552 1551 1549 1547 1546 1544 1541 1539 1537 1534 1531 1527 1525 1522 1518 1512 1509 1505 1501 1496 1493 1490 1486 1483
1551 1553 1555 1556 1557 1559 1559 1559 1559 1559 1559 1558 1557 1556 1555 1554 1553 1552 1550 1549 1547 1545 1543 1542 1540 1539 1536 1533 1530 1526 1523 1520 1517 1514 1508 1504 1501 1497 1494 1489 1483 1480 1475
1548 1549 1550 1552 1554 1554 1555 1556 1555 1555 1554 1553 1552 1552 1551 1550 1549 1548 1547 1545 1544 1541 1539 1538 1538 1536 1532 1528 1525 1522 1519 1516 1513 1509 1504 1500 1496 1492 1489 1484 1477 1470 1466
1545 1546 1547 1548 1550 1550 1551 1551 1550 1550 1550 1549 1548 1548 1547 1547 1545 1545 1544 1542 1539 1537 1535 1534 1533 1531 1529 1525 1521 1518 1516 1512 1508 1504 1500 1495 1491 1489 1484 1480 1472 1465 1455
1541 1543 1543 1544 1545 1545 1546 1546 1546 1546 1546 1545 1544 1543 1543 1543 1541 1540 1539 1537 1535 1533 1531 1531 1528 1527 1523 1519 1516 1513 1510 1507 1504 1499 1494 1491 1487 1484 1480 1474 1469 1464 1455
1536 1538 1539 1539 1540 1540 1540 1541 1541 1541 1540 1540 1539 1539 1538 1538 1536 1535 1534 1533 1531 1529 1529 1526 1523 1520 1517 1512 1508 1505 1502 1499 1496 1492 1488 1484 1481 1477 1474 1469 1464 1458 1451
1529 1531 1532 1533 1534 1535 1535 1535 1535 1535 1535 1535 1535 1534 1533 1532 1531 1530 1529 1528 1526 1525 1523 1521 1518 1515 1512 1507 1503 1497 1493 1489 1487 1483 1479 1475 1473 1471 1468 1464 1459 1453 1443
1522 1524 1526 1527 1528 1529 1530 1531 1531 1531 1531 1530 1530 1529 1527 1527 1525 1524 1524 1522 1521 1519 1518 1515 1513 1510 1506 1502 1497 1491 1485 1482 1478 1474 1471 1467 1465 1462 1461 1459 1454 1448 1443
1517 1518 1519 1520 1521 1523 1524 1525 1525 1525 1525 1524 1523 1523 1523 1522 1520 1519 1518 1517 1516 1514 1512 1510 1507 1504 1500 1497 1492 1487 1482 1479 1474 1469 1465 1461 1459 1456 1453 1451 1448 1444 1438
1510 1511 1513 1514 1515 1516 1518 1519 1518 1519 1519 1519 1518 1518 1517 1517 1515 1514 1513 1512 1510 1508 1506 1503 1501 1498 1494 1490 1486 1482 1479 1476 1471 1467 1463 1458 1454 1450 1446 1442 1439 1436 1433
1504 1505 1505 1506 1507 1509 1509 1511 1512 1512 1513 1514 1513 1512 1512 1512 1511 1509 1508 1506 1505 1502 1500 1497 1495 1492 1488 1484 1481 1478 1475 1471 1467 1462 1458 1453 1449 1444 1439 1434 1430 1426 1423
1497 1498 1498 1499 1501 1502 1503 1504 1505 1507 1506 1508 1508 1507 1507 1507 1506 1505 1503 1500 1499 1498 1495 1492 1489 1486 1483 1480 1477 1475 1472 1467 1462 1457 1453 1449 1444 1438 1434 1429 1423 1418 1413
1493 1493 1494 1493 1494 1495 1495 1497 1498 1500 1500 1500 1502 1503 1502 1501 1499 1498 1498 1496 1495 1492 1489 1486 1483 1480 1477 1475 1473 1470 1466 1463 1458 1453 1448 1443 1438 1433 1428 1424 1419 1413 1408
1487 1484 1484 1487 1488 1490 1491 1492 1493 1494 1495 1495 1495 1497 1496 1495 1494 1492 1492 1490 1488 1486 1483 1480 1477 1474 1473 1470 1467 1464 1461 1457 1454 1449 1444 1439 1434 1429 1423 1419 1414 1410 1404
1480 1479 1479 1480 1481 1481 1484 1484 1486 1488 1489 1489 1489 1489 1490 1489 1487 1487 1486 1484 1482 1481 1477 1475 1472 1471 1468 1466 1463 1459 1455 1452 1449 1444 1440 1435 1430 1425 1420 1415 1410 1405 1400
1470 1469 1470 1470 1472 1473 1476 1478 1480 1482 1483 1483 1483 1483 1483 1482 1482 1481 1479 1477 1476 1474 1472 1470 1469 1467 1465 1461 1458 1454 1450 1446 1443 1439 1434 1430 1426 1421 1416 1411 1407 1402 1396
1460 1460 1461 1462 1466 1468 1469 1471 1475 1476 1477 1477 1476 1476 1476 1476 1475 1475 1473 1472 1471 1469 1468 1467 1465 1462 1459 1455 1452 1449 1445 1441 1437 1433 1429 1425 1421 1416 1411 1407 1402 1398 1393
1453 1455 1456 1457 1458 1461 1464 1466 1470 1470 1471 1471 1471 1471 1471 1470 1469 1469 1467 1465 1464 1463 1463 1461 1459 1457 1453 1450 1446 1443 1439 1435 1431 1427 1423 1419 1415 1411 1406 1401 1397 1392 1388
1446 1447 1448 1449 1452 1456 1458 1461 1464 1465 1465 1465 1466 1466 1466 1466 1465 1464 1463 1462 1461 1460 1458 1456 1454 1451 1448 1444 1441 1437 1433 1429 1425 1421 1417 1413 1409 1404 1400 1395 1391 1387 1383
1437 1440 1441 1443 1446 1449 1452 1456 1458 1458 1460 1460 1461 1461 1460 1460 1460 1458 1457 1456 1455 1454 1452 1450 1447 1444 1441 1438 1434 1430 1426 1423 1419 1416 1411 1407 1402 1398 1393 1388 1384 1381 1377
1431 1433 1435 1438 1441 1443 1448 1452 1452 1453 1455 1456 1456 1456 1455 1454 1453 1452 1451 1451 1449 1448 1446 1444 1441 1438 1435 1431 1428 1424 1420 1416 1413 1409 1404 1400 1395 1391 1386 1381 1377 1374 1371
1424 1426 1431 1434 1436 1440 1444 1446 1448 1449 1450 1451 1451 1451 1451 1450 1449 1448 1447 1445 1444 1442 1440 1437 1435 1432 1428 1425 1421 1417 1414 1410 1406 1401 1398 1393 1388 1384 1379 1374 1371 1367 1364
1418 1423 1427 1430 1434 1437 1440 1441 1443 1444 1445 1445 1445 1445 1445 1444 1444 1443 1442 1440 1438 1436 1434 1431 1428 1425 1422 1418 1415 1411 1406 1402 1399 1395 1391 1386 1381 1377 1372 1367 1363 1361 1359
1417 1421 1425 1428 1431 1433 1435 1437 1438 1439 1440 1440 1440 1440 1440 1439 1438 1437 1436 1434 1432 1430 1427 1425 1422 1419 1415 1411 1406 1402 1398 1395 1392 1388 1383 1378 1373 1368 1364 1360 1357 1354 1352